This is the latest recevied weather packets stored in our database for station/object VR2R-13. If no packets are shown the sender has not sent any weather packets the latest 1 day(s).
| Time | Temp. | Humidity | Pressure | Rain* | Wind** | Luminosity | Snow |
|---|---|---|---|---|---|---|---|
| 1778004465 | 16.11° C | 97% | 913.4 hPa | 0 mm | 1.79 m/s, 83° | - | - |
| 1778004346 | 16.11° C | 97% | 913.4 hPa | 0 mm | 1.79 m/s, 73° | - | - |
| 1778004165 | 16.11° C | 97% | 913.4 hPa | 0 mm | 2.24 m/s, 63° | - | - |
| 1778003986 | 16.11° C | 97% | 913.3 hPa | 0 mm | 1.79 m/s, 61° | - | - |
| 1778003865 | 16.11° C | 97% | 913.4 hPa | 0 mm | 1.34 m/s, 70° | - | - |
| 1778003565 | 16.67° C | 97% | 913.3 hPa | 0 mm | 2.68 m/s, 87° | - | - |
| 1778002964 | 16.11° C | 97% | 913.4 hPa | 0 mm | 1.79 m/s, 51° | - | - |
| 1778002906 | 16.11° C | 97% | 913.4 hPa | 0 mm | 2.24 m/s, 51° | - | - |
| 1778002664 | 16.11° C | 98% | 913.5 hPa | 0 mm | 2.24 m/s, 78° | - | - |
| 1778002364 | 16.11° C | 97% | 913.4 hPa | 0 mm | 3.13 m/s, 91° | - | - |
| 1778002186 | 16.11° C | 97% | 913.5 hPa | 0 mm | 3.13 m/s, 56° | - | - |
| 1778002064 | 16.11° C | 97% | 913.5 hPa | 0 mm | 2.68 m/s, 58° | - | - |
| 1778001826 | 16.11° C | 97% | 913.5 hPa | 0 mm | 3.13 m/s, 78° | - | - |
| 1778001764 | 16.11° C | 97% | 913.5 hPa | 0 mm | 3.58 m/s, 48° | - | - |
| 1778001466 | 16.11° C | 97% | 913.5 hPa | 0 mm | 3.58 m/s, 71° | - | - |
| 1778001464 | 16.11° C | 97% | 913.5 hPa | 0 mm | 3.58 m/s, 70° | - | - |
| 1778001164 | 16.11° C | 97% | 913.5 hPa | 0 mm | 1.34 m/s, 74° | - | - |
| 1778000564 | 16.11° C | 97% | 913.5 hPa | 0 mm | 4.02 m/s, 83° | - | - |
| 1778000386 | 16.11° C | 97% | 913.6 hPa | 0 mm | 3.58 m/s, 52° | - | - |
| 1778000264 | 16.11° C | 97% | 913.7 hPa | 0 mm | 0.45 m/s, 74° | - | - |
| 1778000025 | 16.11° C | 97% | 913.6 hPa | 0 mm | 3.58 m/s, 50° | - | - |
| 1777999964 | 16.11° C | 97% | 913.6 hPa | 0 mm | 4.02 m/s, 61° | - | - |
| 1777999666 | 16.11° C | 97% | 913.6 hPa | 0 mm | 4.47 m/s, 62° | - | - |
| 1777999364 | 16.11° C | 97% | 913.7 hPa | 0 mm | 4.02 m/s, 67° | - | - |
| 1777999305 | 16.11° C | 97% | 913.7 hPa | 0 mm | 4.02 m/s, 78° | - | - |
* Rain latest hour (hover to see other rain measurements)
** Current wind speed in m/s (hover to see current wind gust speed)